Simultaneous Nadir Overpasses (SNOs) Predictions

Prediction of SNOs between AQUA and METOP-B Satellite Orbit:

Table of predicted SNOs for the next 14.0 days since TLE Epoch: 1/26/2018
Index Date (AQUA) Time (AQUA) Lat,Lon (AQUA) SZA (AQUA ) Date (METOP-B) Time (METOP-B) Lat,Lon (METOP-B) SZA (METOP-B ) Distance(km) Time Diff (sec)
1 01/26/2018 23:57:55 -73.78, -5.15 87.61 01/26/2018 23:56:50 -73.77, -5.19 87.61 2.43 65
2 01/27/2018 00:47:24 73.84, 162.37 92.45 01/27/2018 00:47:28 73.84, 162.32 92.45 1.73 4
3 01/27/2018 01:36:54 -74.09, -30.55 87.30 01/27/2018 01:38:05 -74.09, -29.75 87.34 24.41 71
4 01/29/2018 19:32:11 -73.77, 61.32 88.36 01/29/2018 19:31:11 -73.78, 61.23 88.34 2.80 60
5 01/29/2018 20:21:40 73.83,-131.17 91.70 01/29/2018 20:21:49 73.85,-131.26 91.72 3.39 9
6 01/29/2018 21:11:13 -74.23, 35.56 87.88 01/29/2018 21:12:23 -74.25, 37.05 87.93 45.00 70
7 02/01/2018 15:06:29 -73.81, 127.66 89.10 02/01/2018 15:05:33 -73.78, 127.66 89.11 3.27 56
8 02/01/2018 15:55:58 73.88, -64.85 90.97 02/01/2018 15:56:11 73.86, -64.83 90.95 2.46 13
9 02/01/2018 16:45:34 -74.42, 101.53 88.45 02/01/2018 16:46:41 -74.45, 103.98 88.53 73.00 67
10 02/04/2018 10:40:46 -73.81,-165.89 89.92 02/04/2018 10:39:55 -73.79,-165.92 89.93 2.39 51
11 02/04/2018 11:30:15 73.88, 1.58 90.15 02/04/2018 11:30:33 73.86, 1.59 90.13 2.05 18
12 02/04/2018 12:19:55 -74.62, 167.48 89.05 02/04/2018 12:21:00 -74.60, 170.78 89.22 97.50 65
13 02/07/2018 06:15:02 -73.81, -99.46 90.78 02/07/2018 06:14:16 -73.79, -99.51 90.79 2.40 46
14 02/07/2018 07:04:31 73.89, 68.00 89.30 02/07/2018 07:04:54 73.87, 68.00 89.27 2.41 23




NCC Satellite Simultaneous Nadir Overpasses (SNOs) Prediction Service
